Weather in Baryshevo

Russia / Novosibirsk Oblast     54°57′35″N   83°11′01″E
temp.,
°C
wind,
m/s
gust,
m/s
humid.,
%
clouds,
%
prec.,
mm/h
press.,
hPa
HPBL,
m
26 february, fri
fri2601:00−21sw61190100 0.1 1022843
04:00−23sw61193100 0.1 1023846
07:00−23sw61194100 0.2 1026744
10:00−26sw71394100 0.1 1027644
13:00−25sw81394100 0.4 1030688
16:00−23wsw81290100 0.1 1032970
19:00−24wsw51194100 0.3 1034702
22:00−25wsw51296100 0.1 1035671
27 february, sat
sat2701:00−25sw51196100 0.2 1036625
04:00−26sw51096100 0.1 1036492
07:00−26sw5997100 0.3 1037429
10:00−25sw5895100 0.1 1037478
13:00−23sw5793100 0.2 1038548
16:00−22sw4792100 0.1 1038591
19:00−25sw2398100 0.1 103824
22:00−27ssw33100100 0.0 103928
28 february, sun
sun2801:00−30ssw339996 0.0 103925
04:00−30s239716 0.0 103923
07:00−30s339740 0.0 103923
10:00−26sse489654 0.0 1038204
13:00−20sse479054 0.0 1036335
16:00−16sse4789100 0.0 1032422
19:00−16sse3791100 0.0 1029202
22:00−13sse51095100 0.5 1026381
1 march, mon
mon101:00−11sse51194100 1.1 1022504
04:00−10sse61294100 1.0 1018560
07:00−8sse51195100 2.6 1014620
10:00−6sse61195100 2.1 1011613
13:00−1ssw61299100 5.5 1010677
16:000w49100100 3.4 1009569
19:00−1wsw3999100 6.1 1009593
22:00−1sw51098100 1.1 1009465
2 march, tue
tue201:00−2s51197100 3.6 1008503
04:00−5w41096100 2.4 1008341
07:00−8w1297100 3.1 101140
10:00−9wsw61094100 0.6 1013568
13:00−10wsw6993100 1.0 1015534
16:00−10wsw5892100 0.4 1015548
19:00−13sw3596100 0.5 1016100
22:00−16wsw2297100 0.0 101622